Live Position
Loading 3D Globe...
About Orbcomm G2
Group: 3 satellites
Description loading...
Upcoming Passes
Passes for default location (London). Set your location on the main map for personalized predictions.
Altitude History
Loading altitude history...
No altitude history available
Two-Line Element Set
1 25159U 98007C 26104.77925916 .00000547 00000-0 23344-3 0 9990
2 25159 107.9608 38.9422 0038789 76.3925 284.1532 14.35611330467492
Epoch: Apr 14, 2026 •
Age: 9 hours
Current Status
Altitude 799.5 km
Velocity 7.44 km/s
Sub-Earth Point -24.60°S,
52.31°W
Launch Date Feb 10, 1998
Age 28.1 years
Type other
Technical Details
Classification Payload
Mass 42.00 kg
Dry Mass 42.00 kg
Total Mass 42.00 kg
Length 0.20 m
Diameter 1.00 m
Span 4.30 m
Shape Cyl + 2 Pan + Ant
Manufacturer OSCG
Bus Type Microstar
Phase Status In Orbit
Owner/State ORBC/US
Most Searched
Loading...